Regional Weather Roundup
Issued by NWS

Home | Current Version | Previous Version | Text Only | Print | Product List | Glossary On
Versions: 1 2 3 4 5 6 7 8 9 10 11 12 13 14 15 16 17 18 19 20 21 22 23 24 25 26 27 28 29 30 31 32 33 34 35 36 37 38 39 40 41 42 43 44 45 46 47 48 49 50
000
ASUS42 KTBW 220815
RWRFL
FLORIDA REGIONAL WEATHER ROUNDUP
NATIONAL WEATHER SERVICE TAMPA BAY RUSKIN FL
300 AM EST MON JAN 22 2018

NOTE: "FAIR" INDICATES FEW OR NO CLOUDS BELOW 12,000 FEET WITH NO
SIGNIFICANT WEATHER AND/OR OBSTRUCTIONS TO VISIBILITY.

FLZ001>010-012>015-112-114-115-220900-
PANHANDLE FLORIDA

CITY           SKY/WX    TMP DP  RH WIND       PRES   REMARKS
PENSACOLA      FAIR      57  55  93 SE5       30.05F
PENSACOLA NAS  CLOUDY    63  60  90 SE12      30.04F
MILTON NAS     FAIR      50  50 100 E5        30.06
CRESTVIEW      FAIR      44  41  89 CALM      30.09F
DUKE FIELD     FAIR      49  46  88 SE3       30.06F
VALPARAISO     PTCLDY    50  47  89 E3        30.07F
MARY ESTHER    FAIR      49  48  96 CALM      30.05F
PANAMA CITY    FAIR      50  46  86 E6        30.08S
TYNDALL AFB    FAIR      54  50  87 E3        30.09F
APALACHICOLA   FAIR      57  54  89 E8        30.09F

STATION/POSITION SKY/WX   TEMP    WIND        PRES    WAVE   SWELL
                          AIR SEA DIR/SP/G            HT/PER HT/PER
                          (F)     (DEG/KT/KT) (MB)    (FT/S) (FT/S)
PANAMA CITY BEAC NOT AVBL
TOWER C          NOT AVBL

$$
FLZ011-016>038-118-127-128-134-139-239-220900-
NORTH FLORIDA

CITY           SKY/WX    TMP DP  RH WIND       PRES   REMARKS
MARIANNA       FAIR      47  41  80 CALM      30.09F
TALLAHASSEE    FAIR      45  42  89 CALM      30.11F
PERRY          FAIR      54  51  91 SE3       30.13F
LIVE OAK       CLOUDY    46  46 100 CALM      30.15F
CROSS CITY     FAIR      52 N/A N/A CALM      30.17F HAZE
LAKE CITY      FAIR      50  46  87 E5        30.15S
GAINESVILLE    FAIR      49  48  97 CALM      30.17F
WILLISTON        N/A     55  54  94 CALM      30.14F
PALATKA        CLOUDY    46  46 100 CALM      30.15F
MAYPORT NAS    FAIR      51  50  96 N3        30.15F FOG
JACKSONVILLE   FAIR      47  44  90 W3        30.15F
JAX NAS        FAIR      52  48  86 CALM      30.16S
JAX CECIL        N/A     43  43 100 MISG      30.15S
FERNANDINA BEA FAIR      55  54  94 E5        30.14F
ST AUGUSTINE   CLOUDY    50  48  93 CALM      30.15F
PALM COAST     FOG       51  50  97 CALM      30.14F VSB 1/2

STATION/POSITION SKY/WX   TEMP    WIND        PRES    WAVE   SWELL
                          AIR SEA DIR/SP/G            HT/PER HT/PER
                          (F)     (DEG/KT/KT) (MB)    (FT/S) (FT/S)
SHELL POINT      NOT AVBL
KEATON BEACH     NOT AVBL
CEDAR KEY        NOT AVBL
FERNANDINA       NOT AVBL
MAYPORT          NOT AVBL
ST AUGUSTINE     NOT AVBL

$$
FLZ040-043>046-052-053-057-058-063-144-220900-
INTERIOR CENTRAL FLORIDA

CITY           SKY/WX    TMP DP  RH WIND       PRES   REMARKS
OCALA          FAIR      50  50 100 CALM      30.14F
LEESBURG       FAIR      55  54  96 CALM      30.14F
SANFORD        FAIR      55  53  93 CALM      30.14F
ORLANDO EXEC   FAIR      59  58  96 CALM      30.13F
ORLANDO INTL   FAIR      57  57 100 NE3       30.13F
KISSIMMEE      MOCLDY    61  59  93 E3        30.14F
WINTER HAVEN   FAIR      59  58  96 NE3       30.14F
BARTOW         FAIR      57 N/A N/A NE3       30.13S
SEBRING        FOG       59  57  95 CALM      30.12S VSB 1/4
OKEECHOBEE     FOG       57  57 100 CALM      30.11S VSB 3/4

$$
FLZ041-047-054-059-064-141-147-220900-
EAST CENTRAL FLORIDA

CITY           SKY/WX    TMP DP  RH WIND       PRES   REMARKS
DAYTONA BEACH  FOG       53  53 100 CALM      30.14F VSB 1/4
DELAND         CLOUDY    52  52 100 CALM      30.14S FOG
JFK SPACE CTR  FAIR      55  55 100 CALM      30.12F
CAPE CANAVERAL FAIR      62  60  95 E6        30.11F
PATRICK AFB    FAIR      64  64 100 E3        30.12F
MELBOURNE      FAIR      64  63  96 CALM      30.12F
VERO BEACH     FAIR      67  64  90 E7        30.12S
FT PIERCE      FAIR      66  65  96 E7        30.11F
STUART         FAIR      70  66  88 SE10G16   30.12F

STATION/POSITION SKY/WX   TEMP    WIND        PRES    WAVE   SWELL
                          AIR SEA DIR/SP/G            HT/PER HT/PER
                          (F)     (DEG/KT/KT) (MB)    (FT/S) (FT/S)
TRIDENT PIER     NOT AVBL

$$
FLZ050-056-061-142-242-148-248-149-249-151-251-155-255-
160-260-220900-
WEST CENTRAL FLORIDA

CITY           SKY/WX    TMP DP  RH WIND       PRES   REMARKS
CRYSTAL RIVER  FAIR      54  54 100 CALM      30.13F
INVERNESS      FAIR      50  50 100 CALM      30.14F FOG
BROOKSVILLE    FAIR      58  57  97 E5        30.13F
CLEARWATER AIR FAIR      59  59 100 E3        30.11F
ST PETE CLEARW FAIR      61  60  97 E3        30.11F
TAMPA INTL     FAIR      63  60  90 NE5       30.12F
TAMPA EXEC       N/A     55  55 100 CALM      30.12F FOG
PLANT CITY     FAIR      61  59  94 E3        30.14S
MACDILL AFB    CLEAR     59  59 100 E8        30.11F
PETER O KNIGHT FAIR     N/A N/A N/A E5        30.12S
ST PETERSBURG  FAIR      59  58  96 NE3       30.10S
SARASOTA       FAIR      60  59  96 E5        30.09F
VENICE           N/A     63  63 100 E5        30.10F

STATION/POSITION SKY/WX   TEMP    WIND        PRES    WAVE   SWELL
                          AIR SEA DIR/SP/G            HT/PER HT/PER
                          (F)     (DEG/KT/KT) (MB)    (FT/S) (FT/S)
CLEARWATER BEACH NOT AVBL
MIDDLE TAMPA BAY NOT AVBL
VENICE           NOT AVBL

$$
FLZ066-069-070-075>078-162-262-165-265-220900-
SOUTHWEST FLORIDA AND KEYS

CITY           SKY/WX    TMP DP  RH WIND       PRES   REMARKS
PUNTA GORDA    FOG       58  57  97 NE5       30.11F VSB 1/4
FT MYERS       FAIR      64  63  96 E5        30.09F
SOUTHWEST INTL FAIR      61  61 100 E5        30.09F
NAPLES         FAIR      62  62 100 NE7       30.07F
MARCO ISLAND   MOCLDY    63  63 100 NE6       30.09S FOG
IMMOKALEE      FOG       61  61 100 E3        30.10F VSB 1/2
MARATHON       FAIR      72  67  84 E7        30.04F
KEY WEST NAS   FAIR      69  69 100 NE7       30.05F
KEY WEST INTL  FAIR      70  68  93 NE6       30.05F

STATION/POSITION SKY/WX   TEMP    WIND        PRES    WAVE   SWELL
                          AIR SEA DIR/SP/G            HT/PER HT/PER
                          (F)     (DEG/KT/KT) (MB)    (FT/S) (FT/S)
NAPLES           NOT AVBL
DRY TORTUGAS     NOT AVBL

$$
FLZ067-068-071>074-168-172>174-220900-
SOUTHEAST FLORIDA

CITY           SKY/WX    TMP DP  RH WIND       PRES   REMARKS
W PALM BEACH   FAIR      71  68  90 E10       30.10F
FT LAUDER-EXEC FAIR      71  67  87 E9        30.08F
FT LAUDERDALE  FAIR      72  68  87 SE14      30.08F
POMPANO BEACH  MOCLDY    75  69  81 E12       30.08F
PEMBROKE PINES FAIR      72  66  81 E8        30.10F
OPA LOCKA      FAIR      71  66  84 E9        30.09F
MIAMI          FAIR      73  67  81 E9        30.08F
WEST KENDALL   MOCLDY    69  65  86 E9        30.08F
HOMESTEAD      FAIR      70  70 100 E8        30.06F

STATION/POSITION SKY/WX   TEMP    WIND        PRES    WAVE   SWELL
                          AIR SEA DIR/SP/G            HT/PER HT/PER
                          (F)     (DEG/KT/KT) (MB)    (FT/S) (FT/S)

$$




USA.gov is the U.S. government's official web portal to all federal, state and local government web resources and services.